DLH9315 EDHL-EDDH

Flight info

Callsign DLH9315
Flight time 0h 12m
Altitude 14000
Route EDHL RAMA1K RAMAR DCT RARUP RARU3P EDDH
Aircraft A320/M-N/2000

Departure

Time 2026-04-22 15:14
Airport Lübeck Blankensee Airport (EDHL)

Arrival

Time 2026-04-22 15:26
Airport Hamburg Helmut Schmidt Airport (EDDH)
Time Latitude Longitude Altitude Speed Heading
2026-04-22 15:02 53.80477 10.70317 53 ft 0 kts 325°
2026-04-22 15:09 53.80482 10.70324 59 ft 1 kts 32°
2026-04-22 15:09 53.80477 10.70335 59 ft 1 kts 127°
2026-04-22 15:10 53.80460 10.70339 53 ft 6 kts 166°
2026-04-22 15:10 53.80439 10.70420 57 ft 11 kts 79°
2026-04-22 15:10 53.80470 10.70588 56 ft 19 kts 72°
2026-04-22 15:10 53.80517 10.70828 55 ft 24 kts 70°
2026-04-22 15:11 53.80575 10.71117 62 ft 28 kts 72°
2026-04-22 15:11 53.80642 10.71457 58 ft 33 kts 72°
2026-04-22 15:11 53.80625 10.71761 61 ft 26 kts 111°
2026-04-22 15:11 53.80567 10.72040 59 ft 21 kts 93°
2026-04-22 15:12 53.80600 10.72288 57 ft 27 kts 75°
2026-04-22 15:12 53.80658 10.72593 58 ft 28 kts 72°
2026-04-22 15:12 53.80719 10.72910 63 ft 27 kts 74°
2026-04-22 15:12 53.80749 10.73138 54 ft 13 kts 72°
2026-04-22 15:13 53.80765 10.73127 59 ft 3 kts 245°
2026-04-22 15:13 53.80732 10.72969 58 ft 40 kts 254°
2026-04-22 15:13 53.80565 10.72092 57 ft 113 kts 251°
2026-04-22 15:13 53.80264 10.70587 315 ft 141 kts 255°
2026-04-22 15:14 53.79948 10.69005 1037 ft 142 kts 256°
2026-04-22 15:14 53.79643 10.67389 1688 ft 151 kts 256°
2026-04-22 15:14 53.79304 10.65574 2072 ft 173 kts 255°
2026-04-22 15:14 53.78749 10.63621 2429 ft 200 kts 231°
2026-04-22 15:15 53.77479 10.62508 2963 ft 221 kts 190°
2026-04-22 15:15 53.75842 10.62710 3383 ft 251 kts 172°
2026-04-22 15:15 53.74058 10.63372 4058 ft 269 kts 167°
2026-04-22 15:15 53.72211 10.64189 4753 ft 280 kts 165°
2026-04-22 15:16 53.70324 10.65051 4957 ft 281 kts 165°
2026-04-22 15:16 53.68438 10.65894 5014 ft 280 kts 166°
2026-04-22 15:16 53.66517 10.66166 5016 ft 279 kts 190°
2026-04-22 15:16 53.64737 10.64990 5014 ft 275 kts 218°
2026-04-22 15:17 53.63509 10.62607 5025 ft 269 kts 247°
2026-04-22 15:17 53.63108 10.59657 5013 ft 257 kts 276°
2026-04-22 15:17 53.63563 10.56937 5025 ft 231 kts 300°
2026-04-22 15:17 53.64349 10.54639 5015 ft 228 kts 304°
2026-04-22 15:18 53.65197 10.52351 5014 ft 231 kts 304°
2026-04-22 15:18 53.66055 10.50065 4993 ft 230 kts 304°
2026-04-22 15:18 53.66901 10.47819 4784 ft 220 kts 304°
2026-04-22 15:18 53.67689 10.45703 4498 ft 208 kts 305°
2026-04-22 15:19 53.68451 10.43659 4051 ft 204 kts 304°
2026-04-22 15:19 53.69205 10.41651 3638 ft 201 kts 304°
2026-04-22 15:19 53.69958 10.39680 3176 ft 200 kts 304°
2026-04-22 15:19 53.70713 10.37762 2995 ft 193 kts 304°
2026-04-22 15:20 53.71195 10.36537 3008 ft 186 kts 304°
2026-04-22 15:20 53.72110 10.34168 3028 ft 172 kts 304°
2026-04-22 15:20 53.72729 10.32526 3015 ft 161 kts 304°
2026-04-22 15:20 53.73308 10.30990 2994 ft 148 kts 304°
2026-04-22 15:21 53.73840 10.29581 2996 ft 138 kts 300°
2026-04-22 15:21 53.74005 10.28002 3024 ft 148 kts 271°
2026-04-22 15:21 53.73882 10.26107 3007 ft 170 kts 265°
2026-04-22 15:21 53.73699 10.24105 3011 ft 173 kts 265°
2026-04-22 15:22 53.73497 10.22103 3022 ft 173 kts 265°
2026-04-22 15:22 53.73275 10.20105 2990 ft 175 kts 259°
2026-04-22 15:22 53.72784 10.18233 2968 ft 179 kts 236°
2026-04-22 15:22 53.71918 10.16682 2753 ft 183 kts 232°
2026-04-22 15:23 53.71059 10.15071 2411 ft 186 kts 233°
2026-04-22 15:23 53.70226 10.13422 2137 ft 184 kts 233°
2026-04-22 15:23 53.69417 10.11786 1877 ft 180 kts 234°
2026-04-22 15:23 53.68633 10.10194 1635 ft 178 kts 234°
2026-04-22 15:24 53.67852 10.08607 1399 ft 173 kts 235°
2026-04-22 15:24 53.67082 10.07041 1168 ft 169 kts 237°
2026-04-22 15:24 53.66371 10.05602 952 ft 151 kts 236°
2026-04-22 15:24 53.65727 10.04296 745 ft 139 kts 238°
2026-04-22 15:25 53.65123 10.03067 569 ft 132 kts 239°
2026-04-22 15:25 53.64543 10.01882 333 ft 130 kts 240°
2026-04-22 15:25 53.63957 10.00694 181 ft 132 kts 237°
2026-04-22 15:25 53.63381 9.99519 49 ft 123 kts 232°
2026-04-22 15:26 53.62938 9.98609 43 ft 76 kts 229°
2026-04-22 15:26 53.62706 9.98147 45 ft 35 kts 229°
2026-04-22 15:26 53.62613 9.97963 43 ft 23 kts 231°
2026-04-22 15:26 53.62469 9.97791 39 ft 19 kts 144°
2026-04-22 15:27 53.62445 9.97825 41 ft 0 kts 147°
2026-04-22 15:28 53.62440 9.97838 41 ft 3 kts 123°
2026-04-22 15:28 53.62434 9.97866 41 ft 5 kts 109°
2026-04-22 15:28 53.62441 9.98028 41 ft 25 kts 79°
2026-04-22 15:29 53.62474 9.98312 42 ft 24 kts 81°
2026-04-22 15:29 53.62505 9.98576 43 ft 22 kts 80°
2026-04-22 15:29 53.62531 9.98804 43 ft 16 kts 78°
2026-04-22 15:30 53.62557 9.99052 44 ft 6 kts 79°
2026-04-22 15:30 53.62609 9.99120 44 ft 7 kts 346°
2026-04-22 15:30 53.62638 9.99129 44 ft 4 kts 71°
2026-04-22 15:30 53.62645 9.99165 45 ft 3 kts 70°
2026-04-22 15:31 53.62651 9.99193 42 ft 4 kts 69°
2026-04-22 15:31 53.62655 9.99210 43 ft 0 kts 69°